• In France
  • List of Countries
  • For 7 days
  • Water Temperature
  • Satellite Maps
  • Weather Map
  • Weather Widgets
  • user-avatar
    Login

    Hourly Weather Sharan

    Today, 16 January, Tuesday

    Time Temperature Precipitation Wind Pressure Humidity
    00:00 +2°C° 0 mm 1 mps 582 mmHg 16%
    01:00 +2°C° 0 mm 1 mps 582 mmHg 16%
    02:00 +2°C° 0 mm 1 mps 582 mmHg 15%
    03:00 +1°C° 0 mm 1 mps 581 mmHg 15%
    04:00 +1°C° 0 mm 1 mps 581 mmHg 15%
    05:00 +1°C° 0 mm 1 mps 581 mmHg 14%
    06:00 +1°C° 0 mm 1 mps 581 mmHg 14%
    07:00 +1°C° 0 mm 1 mps 581 mmHg 14%
    08:00 +1°C° 0 mm 1 mps 581 mmHg 14%
    09:00 +2°C° 0 mm 2 mps 582 mmHg 13%
    10:00 +5°C° 0 mm 2 mps 583 mmHg 11%
    11:00 +7°C° 0 mm 2 mps 584 mmHg 10%
    12:00 +8°C° 0 mm 3 mps 583 mmHg 10%
    13:00 +8°C° 0 mm 4 mps 583 mmHg 10%
    14:00 +8°C° 0 mm 4 mps 583 mmHg 11%
    15:00 +8°C° 0 mm 4 mps 582 mmHg 12%
    16:00 +7°C° 0 mm 4 mps 582 mmHg 14%
    17:00 +7°C° 0 mm 3 mps 581 mmHg 15%
    18:00 +5°C° 0 mm 3 mps 580 mmHg 18%
    19:00 +4°C° 0 mm 2 mps 580 mmHg 20%
    20:00 +3°C° 0 mm 2 mps 579 mmHg 23%
    21:00 +2°C° 0 mm 2 mps 579 mmHg 25%
    22:00 +2°C° 0 mm 2 mps 579 mmHg 27%
    23:00 +1°C° 0 mm 2 mps 579 mmHg 28%

    Tomorrow, 17 January, Wednesday

    Time Temperature Precipitation Wind Pressure Humidity
    00:00 +1°C° 0 mm 2 mps 579 mmHg 30%
    01:00 -1°C° 0 mm 2 mps 579 mmHg 31%
    02:00 -1°C° 0 mm 2 mps 579 mmHg 32%
    03:00 -2°C° 0 mm 3 mps 579 mmHg 34%
    04:00 -2°C° 0 mm 3 mps 579 mmHg 36%
    05:00 -4°C° 0 mm 3 mps 579 mmHg 37%
    06:00 -3°C° 0 mm 2 mps 579 mmHg 38%
    07:00 -3°C° 0 mm 2 mps 580 mmHg 40%
    08:00 -4°C° 0 mm 2 mps 580 mmHg 41%
    09:00 -2°C° 0 mm 2 mps 581 mmHg 38%
    10:00 -1°C° 0 mm 2 mps 582 mmHg 34%
    11:00 +1°C° 0 mm 2 mps 583 mmHg 30%
    12:00 +3°C° 0 mm 1 mps 583 mmHg 28%
    13:00 +4°C° 0 mm 1 mps 583 mmHg 26%
    14:00 +4°C° 0 mm 1 mps 582 mmHg 24%
    15:00 +4°C° 0 mm 1 mps 583 mmHg 23%
    16:00 +4°C° 0 mm 1 mps 583 mmHg 23%
    17:00 +4°C° 0 mm 1 mps 583 mmHg 23%
    18:00 +3°C° 0 mm 1 mps 583 mmHg 25%
    19:00 +2°C° 0 mm 1 mps 584 mmHg 28%
    20:00 +1°C° 0 mm 1 mps 584 mmHg 30%
    21:00 +1°C° 0 mm 1 mps 584 mmHg 31%
    22:00 +1°C° 0 mm 1 mps 585 mmHg 32%
    23:00 0°C° 0 mm 1 mps 585 mmHg 32%

    Day after tomorrow, 18 January, Thursday

    Time Temperature Precipitation Wind Pressure Humidity
    00:00 0°C° 0 mm 1 mps 585 mmHg 32%
    01:00 0°C° 0 mm 1 mps 585 mmHg 32%
    02:00 0°C° 0 mm 1 mps 585 mmHg 32%
    03:00 0°C° 0 mm 1 mps 585 mmHg 32%
    04:00 -2°C° 0 mm 2 mps 585 mmHg 32%
    05:00 -2°C° 0 mm 2 mps 585 mmHg 32%
    06:00 -2°C° 0 mm 2 mps 585 mmHg 32%
    07:00 -2°C° 0 mm 2 mps 586 mmHg 31%
    08:00 -2°C° 0 mm 2 mps 586 mmHg 31%
    09:00 -1°C° 0 mm 2 mps 587 mmHg 27%
    10:00 +2°C° 0 mm 2 mps 587 mmHg 23%
    11:00 +4°C° 0 mm 2 mps 588 mmHg 19%
    12:00 +4°C° 0 mm 2 mps 588 mmHg 18%
    13:00 +6°C° 0 mm 1 mps 587 mmHg 16%
    14:00 +7°C° 0 mm 1 mps 587 mmHg 15%
    15:00 +7°C° 0 mm 1 mps 587 mmHg 16%
    16:00 +6°C° 0 mm 1 mps 587 mmHg 18%
    17:00 +6°C° 0 mm 1 mps 586 mmHg 19%
    18:00 +5°C° 0 mm 1 mps 586 mmHg 21%
    19:00 +3°C° 0 mm 2 mps 586 mmHg 23%
    20:00 +2°C° 0 mm 2 mps 586 mmHg 25%
    21:00 +1°C° 0 mm 2 mps 586 mmHg 25%
    22:00 +2°C° 0 mm 1 mps 586 mmHg 26%
    23:00 +1°C° 0 mm 1 mps 586 mmHg 27%

    19 January, Friday

    Time Temperature Precipitation Wind Pressure Humidity
    00:00 +1°C° 0 mm 1 mps 585 mmHg 28%
    01:00 -1°C° 0 mm 2 mps 585 mmHg 28%
    02:00 -1°C° 0 mm 2 mps 585 mmHg 28%
    03:00 -2°C° 0 mm 2 mps 585 mmHg 28%
    04:00 -2°C° 0 mm 2 mps 585 mmHg 28%
    05:00 -2°C° 0 mm 2 mps 584 mmHg 28%
    06:00 -2°C° 0 mm 2 mps 585 mmHg 28%
    07:00 -2°C° 0 mm 2 mps 585 mmHg 28%
    08:00 -2°C° 0 mm 2 mps 585 mmHg 27%
    09:00 +1°C° 0 mm 2 mps 586 mmHg 25%
    10:00 +3°C° 0 mm 2 mps 587 mmHg 22%
    11:00 +4°C° 0 mm 2 mps 588 mmHg 20%
    12:00 +5°C° 0 mm 2 mps 587 mmHg 20%
    13:00 +6°C° 0 mm 2 mps 587 mmHg 20%
    14:00 +6°C° 0 mm 2 mps 587 mmHg 20%
    15:00 +6°C° 0 mm 2 mps 587 mmHg 22%
    16:00 +6°C° 0 mm 2 mps 587 mmHg 23%
    17:00 +6°C° 0 mm 2 mps 587 mmHg 24%
    18:00 +4°C° 0 mm 2 mps 587 mmHg 26%
    19:00 +3°C° 0 mm 2 mps 587 mmHg 27%
    20:00 +3°C° 0 mm 1 mps 587 mmHg 29%
    21:00 +2°C° 0 mm 2 mps 587 mmHg 28%
    22:00 +1°C° 0 mm 2 mps 587 mmHg 28%
    23:00 +1°C° 0 mm 2 mps 587 mmHg 28%

    20 January, Saturday

    Time Temperature Precipitation Wind Pressure Humidity
    00:00 +1°C° 0 mm 2 mps 586 mmHg 28%
    01:00 +1°C° 0 mm 2 mps 586 mmHg 29%
    02:00 -1°C° 0 mm 2 mps 586 mmHg 29%
    03:00 -1°C° 0 mm 2 mps 585 mmHg 29%
    04:00 -1°C° 0 mm 2 mps 585 mmHg 29%
    05:00 -1°C° 0 mm 2 mps 585 mmHg 28%
    06:00 -1°C° 0 mm 2 mps 585 mmHg 27%
    07:00 -1°C° 0 mm 2 mps 585 mmHg 26%
    08:00 -1°C° 0 mm 2 mps 585 mmHg 25%
    09:00 +2°C° 0 mm 2 mps 586 mmHg 21%
    10:00 +5°C° 0 mm 2 mps 587 mmHg 17%
    11:00 +8°C° 0 mm 1 mps 588 mmHg 14%
    12:00 +9°C° 0 mm 1 mps 587 mmHg 12%
    13:00 +10°C° 0 mm 1 mps 587 mmHg 11%
    14:00 +11°C° 0 mm 1 mps 587 mmHg 10%
    15:00 +10°C° 0 mm 1 mps 586 mmHg 12%
    16:00 +10°C° 0 mm 1 mps 586 mmHg 13%
    17:00 +9°C° 0 mm 1 mps 585 mmHg 15%
    18:00 +7°C° 0 mm 1 mps 585 mmHg 16%
    19:00 +6°C° 0 mm 1 mps 584 mmHg 17%
    20:00 +4°C° 0 mm 1 mps 584 mmHg 18%
    21:00 +4°C° 0 mm 1 mps 583 mmHg 18%
    22:00 +2°C° 0 mm 0 mps 583 mmHg 19%
    23:00 +2°C° 0 mm 0 mps 583 mmHg 19%

    21 January, Sunday

    Time Temperature Precipitation Wind Pressure Humidity
    00:00 +2°C° 0 mm 1 mps 583 mmHg 18%
    01:00 +2°C° 0 mm 1 mps 582 mmHg 18%
    02:00 +2°C° 0 mm 1 mps 582 mmHg 18%
    03:00 +2°C° 0 mm 1 mps 582 mmHg 18%
    04:00 +2°C° 0 mm 1 mps 582 mmHg 18%
    05:00 +1°C° 0 mm 1 mps 581 mmHg 18%
    06:00 +1°C° 0 mm 1 mps 582 mmHg 18%
    07:00 +1°C° 0 mm 1 mps 582 mmHg 17%
    08:00 +1°C° 0 mm 2 mps 582 mmHg 17%
    09:00 +4°C° 0 mm 1 mps 584 mmHg 14%
    10:00 +6°C° 0 mm 1 mps 585 mmHg 12%
    11:00 +9°C° 0 mm 1 mps 586 mmHg 10%
    12:00 +10°C° 0 mm 1 mps 586 mmHg 9%
    13:00 +10°C° 0 mm 1 mps 585 mmHg 9%
    14:00 +11°C° 0 mm 1 mps 585 mmHg 9%
    15:00 +10°C° 0 mm 1 mps 585 mmHg 10%
    16:00 +10°C° 0 mm 1 mps 584 mmHg 12%
    17:00 +9°C° 0 mm 1 mps 584 mmHg 13%
    18:00 +8°C° 0 mm 1 mps 584 mmHg 14%
    19:00 +6°C° 0 mm 1 mps 584 mmHg 15%
    20:00 +4°C° 0 mm 2 mps 583 mmHg 16%
    21:00 +4°C° 0 mm 2 mps 583 mmHg 16%
    22:00 +3°C° 0 mm 2 mps 583 mmHg 16%
    23:00 +3°C° 0 mm 2 mps 583 mmHg 17%
    Show more